Home > Weather > St. Petersburg > Past weeks

Flag for USA Past Weather in St. Petersburg, Florida, USA — Yesterday and Last 2 Weeks

Now
87 °F

Scattered clouds.


Feels Like: 97 °F
Forecast: 81 / 91 °F
Wind: 3 mph from North

Location: Whitted Airport

Current Time: Jul 29, 2016 at 12:08:33 PM

Latest Report: Jul 29, 2016 at 10:53 AM


Visibility: 10 mi

Pressure: 30.05 "Hg

Humidity: 67%

Dew Point: 75 °F

Location of St. PetersburgLocation

Past Weather in St. Petersburg — Graph

°F

St. Petersburg Temperature Yesterday

Maximum temperature yesterday: 92 °F (at 2:53 PM)
Minimum temperature yesterday: 80 °F (at 1:53 AM)
Average temperature yesterday: 85 °F

High & Low Weather Summary for the Past Weeks

 TemperatureHumidityPressure
High94 °F (Jul 27, 4:53 PM)90% (Jul 17, 8:53 PM)30.20 "Hg (Jul 17, 8:53 PM)
Low75 °F (Jul 19, 3:53 PM)44% (Jul 27, 4:53 PM)29.97 "Hg (Jul 23, 6:53 PM)
Average84 °F72%30.06 "Hg
* Reported Jul 14 10:53 AM — Jul 29 10:53 AM, St. Petersburg, Weather by CustomWeather, © 2016

Note: Actual official high and low records may vary slightly from our data, if they occured in-between our weather recording intervals... More about our weather records

Advertising

St. Petersburg Weather History for the Previous 24 Hours

Scroll right to see more
 ConditionsComfort  
Time TempWeatherWind HumidityBarometerVisibility
10:53 AM
Fri, Jul 29
87 °FScattered clouds.3 mph67%30.05 "Hg10 mi
9:53 AM86 °FThundershowers. Partly sunny.5 mph70%30.05 "Hg10 mi
8:53 AM85 °FPartly sunny.5 mph70%30.04 "Hg10 mi
7:53 AM84 °FSunny.No wind80%30.03 "Hg10 mi
6:53 AM85 °FPassing clouds.No wind68%30.02 "Hg10 mi
5:53 AM84 °FClear.No wind70%30.01 "Hg10 mi
4:53 AM85 °FMostly cloudy.No wind65%30.01 "Hg10 mi
3:53 AM85 °FPassing clouds.3 mph65%30.00 "Hg10 mi
2:53 AM85 °FClear.3 mph68%30.01 "Hg10 mi
1:53 AM86 °FClear.No wind63%30.03 "Hg10 mi
12:53 AM86 °FClear.3 mph65%30.04 "Hg10 mi
11:53 PM
Thu, Jul 28
86 °FPartly cloudy.5 mph65%30.04 "Hg10 mi
10:53 PM86 °FPassing clouds.3 mph63%30.03 "Hg10 mi
9:53 PM86 °FClear.6 mph65%30.01 "Hg10 mi
8:53 PM87 °FSunny.6 mph65%29.99 "Hg10 mi
7:53 PM87 °FSunny.7 mph65%29.99 "Hg10 mi
6:53 PM88 °FSunny.7 mph63%29.98 "Hg10 mi
5:53 PM89 °FScattered clouds.13 mph59%29.98 "Hg10 mi
4:53 PM89 °FSunny.12 mph57%29.99 "Hg10 mi
3:53 PM89 °FSunny.9 mph57%30.00 "Hg10 mi
2:53 PM92 °FSunny.7 mph49%30.02 "Hg10 mi
1:53 PM90 °FSunny.6 mph57%30.03 "Hg10 mi
12:53 PM88 °FSunny.5 mph59%30.04 "Hg10 mi
Weather by CustomWeather, © 2016

See weather overviewHow to use our weather pages